www.pogodaiklimat.ru

Погода и климат >> Архив погоды >> Франция >> Париж Орли аэропорт


АРХИВ ПОГОДЫ в Париж Орли аэропорту

Время (UTC), дата Ветер
(напр.,м/с)
 
Видим.   Явления Облачность Т
(С)
Тd
(С)
f
(%)
Тe
(С)
Тes
(С)
Комфортность P
(гПа)
Po
(гПа)
Тmin
(С)
Tmax
(С)
R
(мм)
R24
(мм)
S
(см)
07 12.06 Ю 2 16 км 10/10 120 м
[St]
+9.7 +9.6 99 +8 +8 очень
холодно
1010.7 999.8
08 12.06 Ю 2 20 км 9/9 240 м
[St]
+11.8 +11.3 97 +11 +12 холодно 1010.4 999.6
09 12.06 Ю 3
{6}
30 км 9/9 480 м
[Cu Sc]
+14.3 +10.1 76 +14 +15 прохладно 1010.1 999.4
10 12.06 Ю 2 30 км 9/9 630 м
[Cu Sc]
+14.8 +10.2 74 +15 +16 холодно 1010.0 999.3
11 12.06 Ю 2 30 км 9/9 750 м
[Cb cap]
+15.3 +9.2 67 +15 +17 холодно 1009.6 999.0
12 12.06 Ю 4
{8}
7000 м н/о +16.1 +11.5 74 +15 +15 холодно 1009.4 998.8 1 0
13 12.06 Ю 2 20 км в посл. час ливневой дождь 8/8 600 м
[Cb cap]
+14.2 +11.4 83 +14 +18 холодно 1009.6 998.9 0.4
14 12.06 Ю 3 25 км 8/8 600 м
[Cb cap]
+15.8 +11.0 73 +16 +18 прохладно 1009.2 998.6
15 12.06 Ю 5
{14}
6000 м гроза, ливневой дождь 9/9 300 м
[Cb cap]
+12.5 +9.7 83 +10 +11 очень
холодно
1009.8 999.1 2
16 12.06 Ю 1 25 км в посл. час гроза {ливн. осадки} 9/9 500 м
[Cb cap]
+14.8 +11.6 81 +15 +16 холодно 1008.9 998.3 0.4
17 12.06 Ю 3 25 км в посл. час гроза 6/6 630 м
[Cb cap]
+15.7 +10.9 73 +15 +17 холодно 1009.2 998.6
18 12.06 Ю 4
{8}
25 км {гроза, ливн. осадки} 5/5 630 м
[Cb cap]
+16.0 +11.0 72 +15 +16 прохладно 1009.3 998.7 +9.2 +17.3 0.4
19 12.06 Ю 2 45 км в посл. час ливневой дождь 5/5 630 м
[Cb cap]
+14.8 +10.8 77 +14 +15 по сезону 1009.6 998.9 0.0
20 12.06 Ю 3 25 км 5/5 630 м
[Cu Sc]
+13.7 +11.0 84 +13 +13 прохладно 1010.4 999.7 0.2
21 12.06 Ю 4
{8}
25 км {ливн. осадки, дождь} 6/1 630 м
[Cu Sc Ci sp]
+12.8 +10.5 86 +11 +11 холодно 1010.8 1000.1 0.2
22 12.06 Ю 2 50 км н/о +12.2 +10.4 89 +11 +11 по сезону 1011.4 1000.6
23 12.06 Ю 2 25 км 4/0
[Ac trans Ci sp]
+11.7 +10.1 90 +10 +10 по сезону 1011.6 1000.8
00 13.06 Ю 3
{7}
25 км {ливн. осадки, дождь} 4/0
[Ac trans Ci fib]
+11.1 +9.8 92 +9 +9 прохладно 1011.7 1000.9
01 13.06 Ю 2 25 км 1/1 2000 м
[Sc]
+10.8 +9.6 92 +10 +10 по сезону 1011.9 1001.1
02 13.06 Ю 2 26 км н/о +10.5 +9.6 94 +9 +9 прохладно 1011.9 1001.1
03 13.06 Ю 3
{5}
25 км 5/5 210 м
[Sc]
+10.2 +9.1 93 +8 +8 холодно 1012.1 1001.2
04 13.06 Ю 2 17 км н/о +9.8 +8.9 94 +9 +9 по сезону 1012.4 1001.5
05 13.06 Ю 2 20 км 9/8 180 м
[St]
+10.3 +9.4 94 +9 +9 прохладно 1012.4 1001.5
06 13.06 Ю 4
{8}
15 км 9/9 200 м
[]
+11.6 +10.0 90 +9 +10 прохладно 1012.5 1001.7 +9.8 +16.2 0.2 0
07 13.06 Ю 2 21 км 9/9 330 м
[]
+12.8 +10.3 85 +12 +12 прохладно 1012.6 1001.8
08 13.06 Ю 3 28 км 9/9 480 м
[Cu hum]
+13.8 +10.4 80 +13 +14 прохладно 1012.4 1001.7
09 13.06 Ю 7
{12}
23 км 10/10 300 м
[]
+14.3 +10.5 78 +12 +12 холодно 1012.8 1002.1 0
10 13.06 Ю 3 20 км 9/6 700 м
[Cu med, cong Ci sp]
+16.1 +10.6 70 +16 +21 холодно 1012.5 1001.9
11 13.06 Ю 4 30 км 9/6 800 м
[Cu med, cong Ac trans]
+17.4 +10.5 64 +17 +20 прохладно 1012.4 1001.8
12 13.06 ЮЗ 6
{12}
30 км 9/6 1000 м
[Cu med, cong Ac trans]
+18.0 +10.8 63 +17 +19 прохладно 1012.4 1001.8
13 13.06 ЮЗ 4 30 км 8/4 1200 м
[Cu med, cong Ac trans]
+19.6 +10.3 55 +21 +25 комфорт 1012.0 1001.5
14 13.06 ЮЗ 3 16 км 9/9 1140 м
[]
+20.2 +11.9 59 +22 +23 комфорт 1011.5 1001.0
15 13.06 Ю 6
{10}
20 км 8/4 1200 м
[Cu med, cong Ac trans]
+19.5 +10.5 56 +20 +22 по сезону 1011.3 1000.8
16 13.06 Ю 3 27 км 9/8 1080 м
[]
+19.1 +11.9 63 +20 +21 по сезону 1011.5 1001.0 0.0
17 13.06 Ю 3 20 км 3/1 1050 м
[Cu med, cong Ac trans]
+19.4 +11.4 60 +21 +23 комфорт 1011.4 1000.9
18 13.06 Ю 5
{10}
20 км 3/1 1050 м
[Cu hum Ac trans]
+19.5 +11.3 59 +21 +21 комфорт 1011.4 1000.9 +11.5 +20.3
19 13.06 ЮЗ 2 20 км 1/1 1200 м
[Cu hum]
+18.7 +11.3 62 +20 +20 тепло 1011.9 1001.4
20 13.06 Ю 1 20 км 1/1 1200 м
[Cu hum Ci fib]
+17.3 +11.3 68 +18 +18 тепло 1012.3 1001.7
21 13.06 Ю 2
{3}
20 км 1/0
[Ci fib]
+15.8 +11.6 76 +16 +16 по сезону 1012.6 1002.0
22 13.06 Ю 1 20 км 1/0
[]
+15.2 +11.4 78 +16 +16 тепло 1012.7 1002.0
23 13.06 Ю 1 20 км 5/0
[]
+13.7 +11.4 86 +14 +14 по сезону 1012.9 1002.2
00 14.06 штиль 0
{2}
23 км 10/0
[]
+13.2 +11.3 88 +13 +13 по сезону 1012.3 1001.6 0
01 14.06 ЮЗ 1 25 км 9/0
[As op]
+13.6 +11.8 89 +15 +15 тепло 1012.6 1001.9
02 14.06 Ю 2 24 км 10/10 1500 м
[]
+13.7 +11.9 89 +13 +13 по сезону 1013.2 1002.5
03 14.06 ЮВ 3
{5}
20 км 10/6 1200 м
[Sc Ac As]
+14.1 +11.6 85 +13 +13 по сезону 1013.1 1002.4
04 14.06 ЮВ 1 22 км {ливн. осадки, дождь} 10/10 2000 м
[]
+14.0 +11.9 87 +15 +15 тепло 1012.9 1002.2 0.0
05 14.06 Ю 1 20 км 9/1 1500 м
[Sc Ac cast Ci sp]
+13.8 +12.0 89 +14 +14 по сезону 1012.8 1002.1
06 14.06 Ю 3
{5}
20 км {ливн. осадки, дождь} 6/1 1500 м
[Sc Ci sp]
+15.0 +13.0 88 +14 +16 по сезону 1013.4 1002.7 +12.9 +19.4 0.0
07 14.06 З 2 20 км 8/8 400 м
[Sc Ci sp]
+15.6 +12.7 83 +15 +16 по сезону 1013.9 1003.2
08 14.06 Ю 1 20 км 3/3 630 м
[Cu Sc]
+17.5 +13.0 75 +19 +27 тепло 1014.2 1003.6
09 14.06 ЮЗ 3
{6}
35 км н/о +19.1 +12.6 66 +20 +20 тепло 1014.5 1004.0 0
10 14.06 Ю 2 35 км 9/6 960 м
[Cu Sc]
+18.8 +13.0 69 +20 +25 по сезону 1014.9 1004.3
11 14.06 Ю 2 35 км 9/9 900 м
[Cu Sc]
+20.6 +13.3 63 +24 +26 комфорт 1014.6 1004.1
12 14.06 ЮЗ 3
{7}
35 км 9/9 900 м
[Cu Sc]
+21.5 +13.7 61 +24 +26 комфорт 1014.0 1003.6
13 14.06 Ю 2 35 км 6/6 1140 м
[Cu Sc Ci fib]
+21.8 +12.4 55 +24 +32 комфорт 1013.4 1003.0
14 14.06 Ю 2 19 км 8/6 1230 м
[Cu Sc Ci fib]
+22.1 +13.7 59 +25 +30 комфорт 1012.8 1002.4
15 14.06 ЮЗ 1
{7}
19 км н/о +22.6 +12.5 53 +25 +25 комфорт 1012.1 1001.7 0
16 14.06 Ю 1 35 км 9/3 1320 м
[Cu Sc Ci fib]
+22.3 +12.5 54 +25 +30 комфорт 1011.8 1001.4
17 14.06 ЮЗ 2 35 км 6/4 1440 м
[Cu med, cong Ci fib]
+22.9 +12.5 52 +26 +28 жарко 1011.6 1001.2
18 14.06 Ю 2
{4}
35 км 9/6 1440 м
[Cu Sc Ci sp]
+22.0 +10.8 49 +24 +25 комфорт 1011.5 1001.1 +15.0 +23.5
19 14.06 З 1 35 км 9/8 1500 м
[Sc Ci sp]
+21.5 +11.8 54 +24 +24 комфорт 1011.6 1001.2
20 14.06 СЗ 2 35 км 9/9 1500 м
[Sc]
+20.5 +12.5 60 +23 +23 комфорт 1011.6 1001.1
21 14.06 СЗ 3
{4}
35 км 10/10 1380 м
[Cu Sc]
+20.4 +12.9 62 +23 +23 комфорт 1011.6 1001.1
22 14.06 СЗ 2 30 км в посл. час дождь 10/10 1200 м
[Cb cap]
+19.5 +12.7 65 +22 +22 комфорт 1011.5 1001.0 0.0
23 14.06 Ю 3 2700 м гроза, ливневой дождь 10/10 840 м
[Cb cap]
+17.4 +14.5 83 +18 +18 тепло 1012.7 1002.1 1
00 15.06 штиль 0
{7}
6000 м ливневой дождь, в посл. час гроза 10/3 1050 м
[Cb cap Ac As]
+15.6 +14.0 90 +15 +15 по сезону 1012.4 1001.8 8
01 15.06 Ю 2 10 км слаб. дождь 10/5 1000 м
[Cb cap Ac trans]
+15.6 +14.6 94 +16 +16 тепло 1012.8 1002.2 1
02 15.06 ЮЗ 1 13 км {дождь} 9/4 1170 м
[Cu Sc Ac trans]
+15.6 +14.8 95 +16 +16 тепло 1012.9 1002.3 0.2
03 15.06 ЮЗ 3
{5}
25 км {дождь} 5/4 1300 м
[Sc Ac trans]
+15.1 +14.1 94 +14 +14 по сезону 1013.4 1002.7 1
04 15.06 ЮЗ 1 11 км 4/3 1470 м
[Sc Ci sp]
+14.5 +13.5 94 +15 +15 тепло 1013.9 1003.2
05 15.06 ЮЗ 1 11 км 4/3 1470 м
[Cu Sc Ci sp]
+15.3 +13.8 91 +16 +17 тепло 1014.0 1003.3
06 15.06 З 3
{5}
30 км {дождь} 4/4 1500 м
[Sc Ci sp]
+15.3 +13.7 90 +15 +16 по сезону 1014.6 1003.9 +14.4 +22.0 10
07 15.06 З 2 30 км 5/4 1500 м
[Sc Ci sp]
+16.9 +12.8 77 +17 +20 по сезону 1015.2 1004.6
08 15.06 ЮЗ 2 25 км 6/5 1500 м
[Sc Ci sp]
+17.3 +12.2 72 +18 +22 тепло 1015.9 1005.3
09 15.06 ЮЗ 4
{8}
30 км 6/5 800 м
[Sc Ci sp]
+18.8 +12.3 66 +19 +23 тепло 1016.3 1005.7
10 15.06 ЮЗ 3 17 км н/о +19.6 +11.1 58 +21 +21 комфорт 1016.6 1006.0
11 15.06 ЮЗ 3 13 км 5/4 1440 м
[Cu hum Ci sp]
+20.5 +9.7 50 +22 +31 комфорт 1016.7 1006.2
12 15.06 ЮЗ 7
{13}
30 км 5/5 1410 м
[Cu hum]
+20.5 +10.3 52 +22 +24 комфорт 1017.0 1006.5
13 15.06 ЮЗ 3 9000 м н/о +20.4 +10.2 52 +22 +22 комфорт 1017.1 1006.6
14 15.06 ЮЗ 3 30 км 6/6 1500 м
[Cu med, cong]
+19.9 +8.6 48 +21 +26 комфорт 1017.1 1006.5
15 15.06 ЮЗ 6
{11}
30 км 6/6 1500 м
[Cu Sc]
+21.4 +9.6 47 +23 +25 комфорт 1016.9 1006.4
16 15.06 З 3 24 км 9/9 1500 м
[]
+20.5 +9.1 48 +22 +23 комфорт 1017.1 1006.6
17 15.06 З 2 30 км 5/5 1500 м
[Cu Sc]
+20.4 +9.3 49 +22 +24 комфорт 1017.0 1006.5
18 15.06 З 6
{9}
30 км 6/6 1500 м
[Cu Sc]
+20.8 +10.0 50 +22 +23 комфорт 1017.4 1006.9 +15.3 +21.7
19 15.06 ЮЗ 2 20 км 8/8 2000 м
[Sc]
+18.9 +9.7 55 +20 +20 тепло 1017.7 1007.1
20 15.06 ЮЗ 2 35 км 4/4 2000 м
[Sc]
+18.0 +9.9 59 +19 +19 тепло 1018.2 1007.6
21 15.06 ЮЗ 3
{6}
30 км 1/1 2000 м
[Sc]
+16.7 +9.9 64 +17 +17 по сезону 1019.1 1008.4
22 15.06 ЮЗ 2 30 км 9/9 2000 м
[Sc]
+16.8 +9.9 64 +17 +17 тепло 1019.2 1008.5
23 15.06 ЮЗ 2 18 км 3/3 2000 м
[Sc]
+15.2 +10.2 72 +15 +15 тепло 1019.6 1008.9
00 16.06 ЮЗ 4
{6}
30 км ясно +14.4 +10.6 78 +13 +13 по сезону 1020.0 1009.2
01 16.06 ЮЗ 2 30 км ясно +14.1 +11.1 82 +14 +14 тепло 1020.1 1009.3
02 16.06 ЮЗ 2 21 км 3/3 2000 м
[Sc As trans]
+13.3 +10.8 85 +13 +13 по сезону 1020.2 1009.4
03 16.06 ЮЗ 4
{7}
30 км 9/1 1230 м
[Sc As trans]
+13.4 +10.9 85 +12 +12 по сезону 1020.3 1009.5
04 16.06 ЮЗ 2 22 км 9/8 1300 м
[Sc As trans]
+13.7 +11.2 85 +13 +13 по сезону 1020.7 1009.9
05 16.06 ЮЗ 2 21 км 9/8 1470 м
[Sc As trans]
+13.9 +11.4 85 +13 +13 по сезону 1020.9 1010.1
06 16.06 ЮЗ 2
{7}
12 км н/о +15.2 +12.0 81 +15 +15 по сезону 1021.5 1010.7 +13.2 +20.7 0
07 16.06 ЮЗ 2 30 км 9/8 480 м
[Sc Ac trans]
+16.0 +11.8 76 +16 +17 по сезону 1021.8 1011.1
08 16.06 ЮЗ 2 30 км 9/9 600 м
[Sc]
+16.7 +12.0 74 +17 +18 по сезону 1022.0 1011.3
09 16.06 ЮЗ 5
{10}
22 км 8/8 600 м
[]
+18.2 +12.0 67 +18 +20 по сезону 1021.9 1011.2 0
10 16.06 Ю 2 22 км 9/8 1000 м
[Cu Sc]
+19.4 +11.4 60 +21 +23 комфорт 1021.8 1011.2
11 16.06 ЮЗ 2 27 км 9/9 1000 м
[Cu Sc]
+19.2 +12.0 63 +21 +23 комфорт 1022.0 1011.4
12 16.06 ЮЗ 6
{10}
30 км 8/8 1500 м
[Cu Sc]
+20.3 +12.8 62 +22 +24 комфорт 1021.8 1011.2
13 16.06 ЮЗ 3 30 км 8/8 1200 м
[Cu Sc]
+21.3 +11.6 54 +23 +26 комфорт 1021.5 1011.0
14 16.06 ЮЗ 3 16 км н/о +22.2 +11.3 50 +24 +24 комфорт 1021.4 1010.9
15 16.06 ЮЗ 5
{10}
30 км 6/6 1380 м
[Cu Sc]
+22.2 +11.6 51 +24 +27 комфорт 1021.1 1010.6
16 16.06 ЮЗ 2 30 км 6/6 1380 м
[Cu Sc]
+21.2 +11.2 53 +23 +26 комфорт 1021.0 1010.5
17 16.06 ЮЗ 2 30 км 4/4 1380 м
[Cu Sc]
+22.5 +12.1 52 +25 +28 комфорт 1020.9 1010.4
18 16.06 ЮЗ 3
{7}
30 км 3/3 1380 м
[Cu Sc Ci fib]
+21.6 +11.6 53 +24 +25 комфорт 1020.9 1010.4 +15.2 +22.6
19 16.06 Ю 2 22 км 1/1 1300 м
[Cu hum Ci fib]
+20.5 +10.9 54 +23 +23 комфорт 1020.9 1010.3
20 16.06 ЮЗ 1 30 км 3/1 1300 м
[Cu hum Ci fib]
+19.1 +10.9 59 +21 +21 комфорт 1020.9 1010.3
21 16.06 ЮЗ 1
{3}
30 км 3/0
[Ci fib]
+17.3 +11.3 68 +18 +18 тепло 1021.2 1010.5
22 16.06 ЮЗ 1 20 км 3/0
[]
+16.1 +11.5 74 +17 +17 тепло 1021.2 1010.5
23 16.06 З 1 20 км 1/0
[]
+15.7 +11.5 76 +17 +17 тепло 1021.1 1010.4
00 17.06 ЮВ 1
{3}
20 км 6/0
[Ci fib]
+14.2 +11.9 86 +14 +14 по сезону 1021.0 1010.2
01 17.06 З 1 30 км 8/0
[]
+13.5 +11.7 89 +14 +14 тепло 1020.8 1010.0
02 17.06 ЮЗ 1 30 км 8/0
[]
+12.6 +11.0 90 +13 +13 по сезону 1020.7 1009.8
03 17.06 ЮЗ 1
{2}
30 км 4/0
[Ci sp]
+12.8 +11.9 94 +14 +14 по сезону 1020.3 1009.5
04 17.06 Ю 1 30 км 1/0
[]
+12.8 +11.2 90 +14 +14 тепло 1020.3 1009.5
05 17.06 штиль 0 14 км 1/0
[]
+14.6 +11.9 84 +14 +15 по сезону 1020.6 1009.8
06 17.06 В 1
{1}
30 км 1/0
[Ci sp]
+16.6 +12.3 76 +18 +21 тепло 1020.6 1009.9 +12.3 +21.8
07 17.06 В 1 18 км 1/1 1500 м
[Sc Ci sp]
+19.0 +13.0 68 +22 +27 комфорт 1020.5 1009.9
08 17.06 ЮВ 1 19 км 1/1 1500 м
[Sc Ci sp]
+21.5 +13.9 62 +24 +33 комфорт 1020.2 1009.7
09 17.06 Ю 2
{4}
30 км 1/1 1000 м
[Cu Sc Ci sp]
+22.3 +13.4 57 +25 +36 комфорт 1019.8 1009.3
10 17.06 В 1 25 км 4/4 1300 м
[Cu hum]
+22.9 +12.5 52 +26 +37 жарко 1019.4 1008.9
11 17.06 С 1 30 км 4/4 1440 м
[Cu hum]
+24.7 +12.6 47 +27 +40 жарко 1018.9 1008.5
12 17.06 ЮВ 3
{6}
30 км 4/4 1500 м
[Cu hum]
+24.4 +14.2 53 +27 +37 жарко 1018.5 1008.1
13 17.06 З 1 19 км 4/4 1500 м
[Cu hum Ci fib]
+24.7 +12.6 47 +27 +39 жарко 1018.0 1007.6
14 17.06 ЮВ 1 19 км 4/3 1500 м
[Cu med, cong Ci fib]
+25.7 +12.9 45 +28 +39 жарко 1017.4 1007.1
15 17.06 СВ 2
{5}
30 км 6/3 1500 м
[Cu med, cong Ci fib]
+25.8 +13.0 45 +28 +35 жарко 1016.9 1006.6
16 17.06 ЮВ 2
{4}
19 км 9/3 1500 м
[Cu med, cong Cs]
+25.5 +13.0 46 +27 +32 жарко 1016.6 1006.3
17 17.06 ЮВ 1 30 км 9/3 1500 м
[Cu med, cong Ci sp]
+25.0 +13.5 49 +27 +30 жарко 1016.3 1006.0
18 17.06 ЮВ 2
{5}
30 км 9/3 1500 м
[Cu med, cong Ci sp]
+24.3 +13.2 50 +26 +27 жарко 1016.3 1005.9 +16.7 +26.4
19 17.06 ЮВ 2 30 км 8/1 1500 м
[Cu med, cong Ci sp]
+23.5 +12.8 51 +26 +26 жарко 1016.1 1005.7
20 17.06 В 1 30 км 6/1 1500 м
[Cu med, cong Ci fib]
+21.7 +12.8 57 +24 +24 комфорт 1016.1 1005.6
21 17.06 штиль 0
{3}
20 км 5/1 1500 м
[Cu hum Ci fib]
+19.7 +13.8 69 +21 +21 комфорт 1016.4 1005.9
22 17.06 штиль 0 20 км 4/1 1500 м
[Sc diur, vesp Ci fib]
+18.1 +13.6 75 +18 +18 тепло 1016.5 1005.9
23 17.06 штиль 0 23 км 5/0
[]
+17.2 +13.5 79 +17 +17 тепло 1016.5 1005.9
00 18.06 штиль 0
{1}
20 км 8/0
[Ci fib]
+16.2 +13.5 84 +16 +16 тепло 1016.1 1005.4
01 18.06 З 1 20 км 6/0
[]
+16.3 +14.0 86 +18 +18 тепло 1015.8 1005.1
02 18.06 З 1 20 км 8/0
[]
+15.5 +13.2 86 +17 +17 тепло 1015.4 1004.7
03 18.06 С 2
{3}
20 км 9/0
[Ci fib]
+15.4 +13.4 88 +16 +16 тепло 1015.3 1004.6
04 18.06 С 1 20 км 9/0
[]
+15.9 +13.7 87 +17 +17 тепло 1015.2 1004.5
05 18.06 СВ 2 20 км 9/0
[]
+16.3 +14.0 86 +17 +17 тепло 1014.6 1004.0
06 18.06 СВ 3
{6}
20 км 9/0
[Ci sp]
+17.0 +14.1 83 +17 +19 тепло 1014.6 1004.0 +14.7 +24.4
07 18.06 СВ 2 20 км 9/0
[]
+19.7 +14.9 74 +22 +25 комфорт 1014.5 1004.0
08 18.06 В 1 19 км 9/0
[Ac trans Ci sp]
+21.2 +15.1 68 +24 +32 комфорт 1014.3 1003.8
09 18.06 В 2
{4}
20 км 9/0
[Ci sp]
+23.1 +15.4 62 +27 +38 душно 1013.9 1003.5
10 18.06 В 2 15 км н/о +24.8 +16.2 59 +28 +28 жарко 1013.3 1003.0
11 18.06 В 2 15 км 8/0
[Ac trans Ci sp]
+26.3 +16.0 53 +30 +42 душно 1012.7 1002.4
12 18.06 ЮВ 4
{8}
25 км 9/0
[Ac trans Ci sp]
+26.9 +17.1 55 +31 +39 душно 1012.1 1001.9
13 18.06 ЮВ 3 25 км 9/1 1000 м
[Cu hum Ac As]
+26.9 +15.6 50 +30 +35 душно 1011.4 1001.2
14 18.06 В 4 30 км 6/0
[Ac trans Ci sp]
+26.9 +14.3 46 +29 +38 жарко 1010.5 1000.3
15 18.06 В 6
{10}
25 км 5/0
[Ac trans Ci sp]
+28.0 +15.6 47 +31 +35 душно 1010.2 1000.0
16 18.06 ЮВ 3 25 км 5/0
[Ac trans Ci sp]
+27.9 +15.9 48 +31 +36 душно 1009.8 999.6
17 18.06 ЮВ 2 30 км 4/1 1500 м
[Cu hum Ac trans Ci sp]
+27.7 +15.7 48 +31 +34 душно 1009.6 999.4
18 18.06 В 4
{9}
25 км 3/0
[Ac trans Ci fib]
+27.0 +16.9 54 +31 +32 душно 1009.2 999.0 +17.1 +28.5
19 18.06 В 2 25 км 3/0
[Ac trans Ci fib]
+26.1 +17.7 60 +30 +31 душно 1008.9 998.7
20 18.06 В 2 22 км 4/0
[Ac trans Ci fib]
+24.3 +17.3 65 +28 +28 душно 1008.7 998.4
21 18.06 В 3
{7}
25 км 4/0
[Ac trans Ci fib]
+22.7 +17.4 72 +28 +28 душно 1008.8 998.5
22 18.06 ЮВ 1 30 км 4/0
[Ac trans Ci fib]
+21.8 +17.2 75 +26 +26 душно 1008.6 998.2
23 18.06 ЮВ 1 15 км 4/0
[Ac trans Ci fib]
+20.9 +16.7 77 +26 +26 душно 1007.9 997.5
00 19.06 штиль 0
{2}
25 км ясно +19.6 +16.6 83 +22 +22 комфорт 1006.6 996.2
01 19.06 Ю 2 25 км 3/0
[]
+19.7 +16.7 83 +23 +23 комфорт 1006.7 996.3
02 19.06 ЮЗ 2 25 км н/о +19.8 +16.2 80 +23 +23 комфорт 1007.2 996.8
03 19.06 ЮЗ 4
{7}
25 км 8/0
[Ac trans]
+20.6 +16.0 75 +24 +24 комфорт 1007.1 996.7
05 19.06 З 3 25 км 9/0
[Ac trans]
+21.5 +14.9 66 +25 +25 комфорт 1007.0 996.6
06 19.06 ЮЗ 4
{11}
25 км в посл. час ливневой дождь 9/1 1500 м
[Cu med, cong Ac As]
+20.9 +14.1 65 +24 +24 комфорт 1007.9 997.5 +19.5 +27.1 0.0
07 19.06 З 2 20 км н/о +22.4 +14.3 60 +26 +26 жарко 1007.7 997.4
08 19.06 ЮЗ 3 16 км н/о +24.6 +14.4 53 +27 +27 жарко 1007.7 997.4

 

Местоположение метеостанции Париж Орли аэропорт (Франция): широта 48.72 долгота 2.38 высота над уровнем моря 90 м.

В архиве по умолчанию представлена погода в Париж Орли аэропорту за последнюю неделю. Архивные данные за месяц целиком и за предыдущие месяцы, начиная с января 2011 года, Вы можете получить, выбрав интересующий диапазон дат из раскрывающегося списка и нажав кнопку "Ввод!".


*Определитесь, кто Вы:
робот инопланетянин человек

Внимание! Время в таблицах - всемирное. Для получения местного времени необходимо прибавить поправку, которая равна 1 ч.

Смотрите также архив погоды в соседних городах и на ближайших метеорологических станциях:

Погода в Париже (Франция) (12 км)
Погода в Велизи-Вилакубле (Франция) (14 км)
Погода в Мелене (Франция) (25 км)
Погода в Ле-Бурже (Франция) (28 км)
Погода в Трапе (Франция) (28 км)
Погода в Аэропорту Шарль де Голль (Франция) (35 км)
Погода в Кормее (Франция) (48 км)
Погода в Крее (Франция) (60 км)
Погода в Шартре (Франция) (70 км)
Погода в Бове (Франция) (86 км)

Пояснения к столбцам:

Ветер - указаны скорость ветра в м/с - средняя за 10 мин, порывы в срок и между сроками (в фигурных скобках) и направление, откуда дует ветер: С - северный, СВ - северо-восточный, В - восточный, ЮВ - юго-восточный, Ю - южный, ЮЗ - юго-западный, З - западный, СЗ - северо-западный.
Видимость - горизонтальная дальность видимости в метрах или километрах. При видимости от 1 до 10 км при отсутствии осадков обычно наблюдается дымка, при ухудшении видимости до 1 км и менее - туман. В сухую погоду видимость может ухудшаться дымом, пылью или мглою.
Явления - указаны атмосферные явления, наблюдавшиеся в срок или в последний час перед сроком; фигурными скобками обозначены явления, наблюдавшиеся между сроками (за 1-3 часа до срока); квадратными скобками обозначены град или гололедные отложения с указанием их диаметра в мм.
Облачность - указаны через наклонную черту общая и нижняя облачность в баллах и высота нижней границы облаков в метрах; квадратными скобками обозначены формы облаков: Ci - перистые, Cs - перисто-слоистые, Cc - перисто-кучевые, Ac - высококучевые, As - высокослоистые, Sc - слоисто-кучевые, Ns - слоисто-дождевые, Cu - кучевые, Cb - кучево-дождевые. Подробнее классификацию облаков см. в Атласе облаков (PDF).
T - Температура воздуха - температура, измеренная на высоте 2 м над землей.
Td - Температура точки росы - температура, при понижении до которой содержащийся в воздухе водяной пар достигнет насыщения.
f - Относительная влажность воздуха - влажноcть воздуха, измеренная на высоте 2 м над землей.
Te - Эффективная температура - температура, которую ощущает одетый по сезону человек в тени. Характеристика душности погоды. При расчете учитывается влияние влажности воздуха и скорости ветра на теплоощущения человека.
Tes - Эффективная температура на солнце - температура, которую ощущает человек, с поправкой на солнечный нагрев. Характеристика знойности погоды. Зависит от высоты солнца над горизонтом, облачности и скорости ветра. Ночью, в пасмурную погоду, а также при ветре 12 м/с и более поправка равна нулю.
P - Атмосферное давление - приведенное к уровню моря атмосферное давление.
Po - Атмосферное давление - измеренное на уровне метеостанции атмосферное давление.
Tmin - Минимальная температура - минимум температуры воздуха на высоте 2 м над землей.
Tmax - Максимальная температура - максимум температуры воздуха на высоте 2 м над землей.
R - Количество осадков - Количество выпавших осадков за период времени, мм. При наведении курсора мыши на число - период времени, за который выпало указанное количество осадков.
R24 - Количество осадков - Количество выпавших осадков за 24 часа, мм.
S - Снежный покров - Высота снежного покрова, см. При наведении курсора мыши на число - состояние снежного покрова и степень покрытия местности в баллах.